Regional Weather Roundup
Issued by NWS

Home | Current Version | Previous Version | Graphics & Text | Print | Product List | Glossary Off
Versions: 1 2 3 4 5 6 7 8 9 10 11 12 13 14 15 16 17 18 19 20 21 22 23 24 25 26 27 28 29 30 31 32 33 34 35 36 37 38 39 40 41 42 43 44 45 46 47 48 49 50

000
ASUS43 KTOP 212359
RWRKS

WEATHER ROUNDUP FOR KANSAS
NATIONAL WEATHER SERVICE GOODLAND KS
700 PM CDT SAT OCT 21 2017

NOTE:  "FAIR" INDICATES FEW OR NO CLOUDS BELOW 12,000 FEET WITH NO
SIGNIFICANT WEATHER AND/OR OBSTRUCTIONS TO VISIBILITY.

KSZ001>006-013>018-027>032-041>047-220100-
NORTHWEST KANSAS

CITY           SKY/WX    TMP DP  RH WIND       PRES   REMARKS
GOODLAND       CLEAR     53  18  25 NW13      30.03R
6HR MIN TEMP:  53; 6HR MAX TEMP:  62;

HAYS           CLEAR     54  37  52 N8        29.97R
HILL CITY      CLEAR     54  37  52 NE6       29.98R
6HR MIN TEMP:  54; 6HR MAX TEMP:  64;

RUSSELL        CLEAR     56  41  57 N9        29.95R
6HR MIN TEMP:  56; 6HR MAX TEMP:  70;

$$

KSZ061>065-074>080-084>089-220100-
SOUTHWEST KANSAS

CITY           SKY/WX    TMP DP  RH WIND       PRES   REMARKS
DODGE CITY     CLOUDY    55  31  39 N9        29.97R
6HR MIN TEMP:  55; 6HR MAX TEMP:  68;

ELKHART          N/A    N/A N/A N/A MISG        N/A
GARDEN CITY    CLEAR     51  30  44 N8        29.98S
6HR MIN TEMP:  51; 6HR MAX TEMP:  63;

GREAT BEND     CLEAR     59  38  45 N16G23    29.94R
LIBERAL        MOCLDY    56  30  37 N12       29.99S
$$

KSZ066>073-081>083-090>101-220100-
SOUTHEAST KANSAS

CITY           SKY/WX    TMP DP  RH WIND       PRES   REMARKS
CHANUTE        CLOUDY    74  64  71 S12       29.80S
6HR MIN TEMP:  73; 6HR MAX TEMP:  79; 6HR PCP: TRACE;

COFFEYVILLE    CLOUDY    75  65  70 S13       29.80F
6HR MIN TEMP:  75; 6HR MAX TEMP:  80;

HUTCHINSON     CLOUDY    67  42  40 N18G30    29.88R
6HR MIN TEMP:  67; 6HR MAX TEMP:  74; 6HR PCP: TRACE;

MEDICINE LODGE   N/A     66  39  37 N17G29    29.90R
NEWTON         LGT RAIN  58  50  75 N9        29.89R
PARSONS        CLOUDY    75  63  66 S12G20    29.81F
6HR MIN TEMP:  74; 6HR MAX TEMP:  80;

WICHITA INTL   TSTM      60  55  83 NE10      29.88R
6HR MIN TEMP:  60; 6HR MAX TEMP:  76; 6HR PCP:  0.51;

WICHITA JABRA  TSTM      57  54  89 N9        29.88R
6HR MIN TEMP:  57; 6HR MAX TEMP:  78; 6HR PCP:  0.75;

WICHITA MCCONL TSTM      59  55  86 NW12      29.89R
WINFIELD       TSTM      58  57  97 N22G32    29.84R FOG
6HR MIN TEMP:  58; 6HR MAX TEMP:  77; 6HR PCP:  0.38;

$$

KSZ007>012-019>026-033>040-048>060-102>105-220100-
NORTHEAST KANSAS

CITY           SKY/WX    TMP DP  RH WIND       PRES   REMARKS
CONCORDIA      MOCLDY    58  41  53 N10       29.91R
6HR MIN TEMP:  58; 6HR MAX TEMP:  72; 6HR PCP: TRACE;

EMPORIA        LGT RAIN  57  55  93 N6        29.84R FOG
6HR MIN TEMP:  57; 6HR MAX TEMP:  77; 6HR PCP:  0.44;

LAWRENCE       TSTM      61  61 100 CALM      29.82S FOG
6HR MIN TEMP:  61; 6HR MAX TEMP:  76; 6HR PCP:  0.76;

MANHATTAN      CLOUDY    63  44  50 N10       29.85R
6HR MIN TEMP:  63; 6HR MAX TEMP:  77; 6HR PCP:  0.13;

OLATHE IND     CLOUDY    73  64  73 S10       29.82R
6HR MIN TEMP:  72; 6HR MAX TEMP:  75;

OLATHE EXE     CLOUDY    71  65  81 S7        29.81R
6HR MIN TEMP:  71; 6HR MAX TEMP:  75; 6HR PCP:  0.01;

SALINA         CLOUDY    66  43  43 N20       29.88R
6HR MIN TEMP:  66; 6HR MAX TEMP:  74;

TOPEKA BILLARD TSTM      63  63 100 S5        29.84R
6HR MIN TEMP:  62; 6HR MAX TEMP:  76; 6HR PCP:  0.27;

TOPEKA FORBES  LGT RAIN  62  61  96 CALM      29.85R
6HR MIN TEMP:  62; 6HR MAX TEMP:  76; 6HR PCP:  0.54;

$$




USA.gov is the U.S. government's official web portal to all federal, state and local government web resources and services.